User: anonymous   Login
Location: Mt. Cuba Astronomical Observatory
(39.8100°N, 75.6300°W)
Time: 11:35:06
(UTC-04:00)
Language:

Cosmos 2058 - Orbit

View from above orbital plane
View from above orbital plane
View from above satellite
View from above satellite

Ground track
Ground track

The orbit data is extracted from the following two-line orbital elements,

1 20465U 90010A   18115.91090618 +.00000233 +00000-0 +17609-4 0  9992
2 20465 082.4870 307.1361 0014629 326.3417 033.6875 14.97706543511035
Epoch (UTC): 25 April 2018 21:51:42
Eccentricity: 0.0014629
inclination: 82.4870°
perigee height: 564 km
apogee height: 584 km
right ascension of ascending node: 307.1361°
argument of perigee: 326.3417°
revolutions per day: 14.97706543
mean anomaly at epoch: 33.6875°
orbit number at epoch: 51103

The dashed part of the orbit path shows where the satellite is in the earth's shadow,  

DLR